Tracking 19709 objects as of 18-Jun-2019
HD Live streaming from Space Station
objects crossing your sky now

NADEZHDA 7

Track NADEZHDA 7 now!
10-day predictions
NADEZHDA 7 is classified as:


NORAD ID: 27534
Int'l Code: 2002-046A
Perigee: 971.1 km
Apogee: 1,022.8 km
Inclination: 82.9 °
Period: 104.9 minutes
Semi major axis: 7367 km
RCS: 1.9312 m2 (large)
Launch date: September 26, 2002
Source: Commonwealth of Independent States (former USSR) (CIS)
Launch site: PLESETSK MISSILE AND SPACE COMPLEX (PKMTR)
aabbcc
Your satellite tracking list
Your tracking list is empty




NASA's NSSDC Master Catalog

Two Line Element Set (TLE):
1 27534U 02046A   19169.21586684  .00000045  00000-0  32842-4 0  9991
2 27534  82.9366  59.1137 0035088 233.9838 237.0280 13.72710360837979
Source of the keplerian elements: AFSPC